Weather History for KSUU - December, 2013

Change the Weather History Date:

Thursday, December 19, 2013

  Actual Average Record
Temperature  
Mean Temperature 48 °F -  
Max Temperature 59 °F 54 °F 78 °F (1999)
Min Temperature 37 °F 36 °F 26 °F (2006)
Degree Days  
Heating Degree Days 17    
Moisture  
Dew Point 26 °F    
Average Humidity 45    
Maximum Humidity 99    
Minimum Humidity 22    
Precipitation  
Precipitation 0.36 in - - ()
Sea Level Pressure  
Sea Level Pressure 29.80 in    
Wind  
Wind Speed 13 mph (North)    
Max Wind Speed 25 mph    
Max Gust Speed 37 mph    
Visibility 10 miles    
Events      
Averages and records for this station are not official NWS values.
T = Trace of Precipitation, MM = Missing Value Source: NWS Daily Summary

Daily Weather History Graph

Daily Weather History Graph

Search for Another Location

Airport or City:

Trip Planner

Search our weather history database for the weather conditions in past years. The results will help you decide how hot, cold, wet, or windy it might be!

Date:

Astronomy

Dec. 19, 2013 Rise Set
Actual Time 7:20 AM PST 4:50 PM PST
Civil Twilight 6:50 AM PST 5:19 PM PST
Nautical Twilight 6:17 AM PST 5:53 PM PST
Astronomical Twilight 5:45 AM PST 6:25 PM PST
Moon 7:19 PM PST (12/19) 8:43 AM PST (12/19)
Length of Visible Light 10h 29m
Length of Day
9h 30m
Waning Gibbous, 95% of the Moon is Illuminated
Dec 19
Waning Gibbous
Dec 25
Last Quarter
Jan 1
New
Jan 7
First Quarter
Jan 15
Full

Hourly Weather History & Observations

Time (PST) Temp. Windchill Dew Point Humidity Pressure Visibility Wind Dir Wind Speed Gust Speed Precip Events Conditions
12:58 AM 48.0 °F - 43.0 °F 83% 29.68 in 10.0 mi SW 13.8 mph - N/A   Clear
1:58 AM 45.1 °F - 37.2 °F 74% 29.70 in 10.0 mi South 2.3 mph - N/A   Clear
2:58 AM 38.5 °F 32.7 °F 36.1 °F 91% 29.70 in 10.0 mi SSE 8.1 mph - N/A   Clear
3:58 AM 38.5 °F 34.1 °F 37.9 °F 98% 29.69 in 10.0 mi East 5.8 mph - N/A   Clear
4:58 AM 37.0 °F 33.3 °F 36.9 °F 99% 29.69 in 10.0 mi SW 4.6 mph - N/A   Clear
5:58 AM 39.2 °F - 36.9 °F 91% 29.70 in 10.0 mi SW 2.3 mph - N/A   Clear
6:58 AM 45.0 °F 39.3 °F 34.2 °F 66% 29.73 in 10.0 mi North 11.5 mph - N/A   Partly Cloudy
7:58 AM 44.8 °F 39.9 °F 33.3 °F 64% 29.77 in 10.0 mi NNE 9.2 mph - N/A   Clear
8:58 AM 52.3 °F - 29.5 °F 42% 29.79 in 10.0 mi North 16.1 mph 21.9 mph N/A   Mostly Cloudy
9:58 AM 55.9 °F - 27.1 °F 33% 29.82 in 10.0 mi North 19.6 mph 28.8 mph N/A   Partly Cloudy
10:58 AM 57.4 °F - 25.9 °F 30% 29.83 in 10.0 mi North 24.2 mph 32.2 mph 0.09 in   Scattered Clouds
11:58 AM 58.6 °F - 25.2 °F 28% 29.81 in 10.0 mi North 21.9 mph 36.8 mph 0.09 in   Clear
12:58 PM 59.7 °F - 24.1 °F 26% 29.79 in 10.0 mi North 24.2 mph 35.7 mph 0.01 in   Clear
1:58 PM 59.9 °F - 23.0 °F 24% 29.79 in 10.0 mi North 21.9 mph 36.8 mph 0.04 in   Clear
2:58 PM 59.4 °F - 21.9 °F 24% 29.81 in 10.0 mi North 25.3 mph 34.5 mph 0.12 in   Clear
3:58 PM 57.6 °F - 20.1 °F 23% 29.82 in 10.0 mi North 20.7 mph 26.5 mph N/A   Clear
4:58 PM 54.3 °F - 18.7 °F 25% 29.84 in 10.0 mi North 19.6 mph 29.9 mph 0.01 in   Clear
5:58 PM 52.7 °F - 17.8 °F 25% 29.85 in 10.0 mi North 17.3 mph 27.6 mph N/A   Clear
6:58 PM 52.9 °F - 16.9 °F 24% 29.86 in 10.0 mi NNW 13.8 mph 26.5 mph N/A   Clear
7:58 PM 52.2 °F - 15.6 °F 24% 29.87 in 10.0 mi NNW 19.6 mph 24.2 mph N/A   Clear
8:58 PM 50.7 °F - 14.4 °F 24% 29.89 in 10.0 mi NNW 13.8 mph 19.6 mph N/A   Clear
9:58 PM 50.0 °F - 13.1 °F 23% 29.90 in 10.0 mi North 11.5 mph 23.0 mph N/A   Clear
10:58 PM 49.5 °F - 12.2 °F 22% 29.93 in 10.0 mi North 15.0 mph 27.6 mph N/A   Clear
11:58 PM 48.4 °F - 12.4 °F 24% 29.93 in 10.0 mi North 13.8 mph 23.0 mph N/A   Clear